Heber, UT

3:57 AM MDT on August 22, 2017 (GMT -0600)
Heber

Weather History for K36U - July, 2013

Change the Weather History Date:

Thursday, July 18, 2013

  Actual Average (KPVU) Record (KPVU)
Temperature  
Mean Temperature 75 °F -  
Max Temperature 95 °F 89 °F 100 °F (1998)
Min Temperature 55 °F 58 °F 50 °F (2015)
Cooling Degree Days 10    
Growing Degree Days 25 (Base 50)    
Moisture  
Dew Point 52 °F    
Average Humidity 60    
Maximum Humidity 94    
Minimum Humidity 12    
Precipitation  
Precipitation 0.00 in - - ()
Sea Level Pressure  
Sea Level Pressure 30.24 in    
Wind  
Wind Speed 1 mph (SSE)    
Max Wind Speed 14 mph    
Max Gust Speed 24 mph    
Visibility 10 miles    
Events Thunderstorm    
Averages and records for this station are not official NWS values.
T = Trace of Precipitation, MM = Missing Value Source: NWS Daily Summary

Daily Weather History Graph

Daily Weather History Graph

Search for Another Location

Airport or City:

Trip Planner

Search our weather history database for the weather conditions in past years. The results will help you decide how hot, cold, wet, or windy it might be!

Date:

Astronomy

Jul. 18, 2013 Rise Set
Actual Time 6:10 AM MDT 8:52 PM MDT
Civil Twilight 5:38 AM MDT 9:24 PM MDT
Nautical Twilight 4:58 AM MDT 10:04 PM MDT
Astronomical Twilight 4:13 AM MDT 10:49 PM MDT
Moon 4:53 PM MDT (7/18) 2:04 AM MDT (7/18)
Length of Visible Light 15h 45m
Length of Day
14h 42m
Waxing Gibbous, 78% of the Moon is Illuminated
Jul 18
Waxing Gibbous
Jul 22
Full
Jul 29
Last Quarter
Aug 6
New
Aug 14
First Quarter

Hourly Weather History & Observations

Time (MDT) Temp. Heat Index Dew Point Humidity Pressure Visibility Wind Dir Wind Speed Gust Speed Precip Events Conditions
12:15 AM 60.8 °F - 57.2 °F 88% 30.27 in 10.0 mi Calm Calm - N/A   Clear
12:35 AM 60.8 °F - 55.4 °F 82% 30.27 in 10.0 mi Calm Calm - N/A   Clear
12:55 AM 60.8 °F - 55.4 °F 82% 30.27 in 10.0 mi Calm Calm - N/A   Clear
1:15 AM 59.0 °F - 55.4 °F 88% 30.27 in 10.0 mi Calm Calm - N/A   Clear
1:35 AM 59.0 °F - 55.4 °F 88% 30.27 in 10.0 mi Calm Calm - N/A   Clear
1:55 AM 59.0 °F - 55.4 °F 88% 30.27 in 10.0 mi Calm Calm - N/A   Clear
2:15 AM 59.0 °F - 53.6 °F 82% 30.27 in 10.0 mi Calm Calm - N/A   Clear
2:35 AM 55.4 °F - 53.6 °F 94% 30.27 in 10.0 mi Calm Calm - N/A   Clear
2:55 AM 57.2 °F - 53.6 °F 88% 30.27 in 10.0 mi Calm Calm - N/A   Clear
3:15 AM 57.2 °F - 53.6 °F 88% 30.28 in 10.0 mi Calm Calm - N/A   Clear
3:35 AM 55.4 °F - 53.6 °F 94% 30.28 in 10.0 mi Calm Calm - N/A   Clear
3:55 AM 55.4 °F - 53.6 °F 94% 30.28 in 10.0 mi SE 4.6 mph - N/A   Clear
4:15 AM 55.4 °F - 53.6 °F 94% 30.28 in 10.0 mi Calm Calm - N/A   Clear
4:35 AM 55.4 °F - 53.6 °F 94% 30.29 in 10.0 mi Calm Calm - N/A   Clear
4:55 AM 55.4 °F - 53.6 °F 94% 30.29 in 10.0 mi Calm Calm - N/A   Clear
5:15 AM 55.4 °F - 53.6 °F 94% 30.30 in 10.0 mi Calm Calm - N/A   Clear
5:35 AM 55.4 °F - 53.6 °F 94% 30.30 in 10.0 mi Calm Calm - N/A   Clear
5:55 AM 55.4 °F - 53.6 °F 94% 30.31 in 10.0 mi Calm Calm - N/A   Scattered Clouds
6:15 AM 55.4 °F - 53.6 °F 94% 30.31 in 10.0 mi Calm Calm - N/A   Mostly Cloudy
6:35 AM 55.4 °F - 53.6 °F 94% 30.31 in 10.0 mi Calm Calm - N/A   Mostly Cloudy
6:55 AM 57.2 °F - 55.4 °F 94% 30.31 in 10.0 mi Calm Calm - N/A   Mostly Cloudy
7:15 AM 59.0 °F - 55.4 °F 88% 30.31 in 10.0 mi Calm Calm - N/A   Scattered Clouds
7:35 AM 59.0 °F - 55.4 °F 88% 30.31 in 10.0 mi Calm Calm - N/A   Scattered Clouds
7:55 AM 60.8 °F - 55.4 °F 82% 30.31 in 10.0 mi Calm Calm - N/A   Clear
8:15 AM 60.8 °F - 55.4 °F 82% 30.31 in 10.0 mi Calm Calm - N/A   Clear
8:35 AM 60.8 °F - 55.4 °F 82% 30.31 in 10.0 mi Calm Calm - N/A   Clear
8:55 AM 62.6 °F - 55.4 °F 77% 30.31 in 10.0 mi Calm Calm - N/A   Clear
9:15 AM 64.4 °F - 55.4 °F 73% 30.30 in 10.0 mi Calm Calm - N/A   Clear
9:35 AM 66.2 °F - 57.2 °F 73% 30.30 in 10.0 mi Calm Calm - N/A   Clear
9:55 AM 68.0 °F - 57.2 °F 68% 30.29 in 10.0 mi Calm Calm - N/A   Clear
10:15 AM 69.8 °F - 57.2 °F 64% 30.29 in 10.0 mi Calm Calm - N/A   Clear
10:35 AM 71.6 °F - 57.2 °F 60% 30.28 in 10.0 mi Calm Calm - N/A   Clear
10:55 AM 73.4 °F - 55.4 °F 53% 30.28 in 10.0 mi Calm Calm - N/A   Clear
11:15 AM 73.4 °F - 55.4 °F 53% 30.27 in 10.0 mi Calm Calm - N/A   Clear
11:35 AM 77.0 °F - 57.2 °F 50% 30.27 in 10.0 mi Calm Calm - N/A   Clear
11:55 AM 77.0 °F - 59.0 °F 54% 30.26 in 10.0 mi Calm Calm - N/A   Clear
12:15 PM 80.6 °F 80.8 °F 57.2 °F 45% 30.26 in 10.0 mi Calm Calm - N/A   Clear
12:35 PM 82.4 °F - 50.0 °F 32% 30.25 in 10.0 mi Calm Calm - N/A   Clear
12:55 PM 82.4 °F - 51.8 °F 35% 30.24 in 10.0 mi Calm Calm - N/A   Clear
1:15 PM 86.0 °F - 44.6 °F 23% 30.23 in 10.0 mi ENE 3.5 mph - N/A   Clear
1:35 PM 87.8 °F - 48.2 °F 25% 30.22 in 10.0 mi ESE 3.5 mph - N/A   Clear
1:55 PM 87.8 °F - 50.0 °F 27% 30.20 in 10.0 mi Calm Calm - N/A   Clear
2:15 PM 89.6 °F - 50.0 °F 26% 30.19 in 10.0 mi WNW 3.5 mph - N/A   Clear
2:35 PM 89.6 °F - 48.2 °F 24% 30.19 in 10.0 mi WNW 3.5 mph - N/A   Clear
2:55 PM 91.4 °F - 42.8 °F 18% 30.18 in 10.0 mi WNW 4.6 mph - N/A   Clear
3:15 PM 93.2 °F - 41.0 °F 16% 30.17 in 10.0 mi NNW 8.1 mph - N/A   Clear
4:15 PM 95.0 °F - 35.6 °F 12% 30.16 in 10.0 mi NNW 6.9 mph - N/A   Scattered Clouds
4:35 PM 91.4 °F - 37.4 °F 15% 30.15 in 10.0 mi ENE 6.9 mph 17.3 mph N/A Thunderstorm Scattered Clouds
4:55 PM 91.4 °F - 39.2 °F 16% 30.14 in 10.0 mi NW 3.5 mph - N/A   Clear
5:15 PM 89.6 °F - 48.2 °F 24% 30.14 in 10.0 mi North 9.2 mph - N/A   Clear
5:35 PM 91.4 °F - 50.0 °F 24% 30.14 in 10.0 mi North 6.9 mph - N/A   Clear
5:55 PM 86.0 °F - 46.4 °F 25% 30.14 in 10.0 mi South 10.4 mph 16.1 mph N/A   Clear
6:15 PM 86.0 °F - 48.2 °F 27% 30.15 in 10.0 mi South 13.8 mph 24.2 mph N/A   Scattered Clouds
6:35 PM 82.4 °F - 48.2 °F 30% 30.14 in 10.0 mi South 12.7 mph 21.9 mph N/A   Scattered Clouds
6:55 PM 82.4 °F - 46.4 °F 28% 30.14 in 10.0 mi South 9.2 mph - N/A   Scattered Clouds
7:15 PM 86.0 °F - 48.2 °F 27% 30.14 in 10.0 mi South 6.9 mph - N/A   Clear
7:35 PM 82.4 °F - 48.2 °F 30% 30.14 in 10.0 mi South 3.5 mph - N/A   Clear
7:55 PM 80.6 °F - 50.0 °F 34% 30.15 in 10.0 mi South 3.5 mph - N/A   Clear
8:15 PM 80.6 °F - 48.2 °F 32% 30.15 in 10.0 mi South 6.9 mph - N/A   Clear
8:35 PM 78.8 °F - 48.2 °F 34% 30.15 in 10.0 mi SE 3.5 mph - N/A   Clear
8:55 PM 73.4 °F - 53.6 °F 50% 30.16 in 10.0 mi North 3.5 mph - N/A   Clear
9:15 PM 73.4 °F - 53.6 °F 50% 30.17 in 10.0 mi North 3.5 mph - N/A   Clear
9:35 PM 71.6 °F - 53.6 °F 53% 30.18 in 10.0 mi SSW 3.5 mph - N/A   Clear
9:55 PM 71.6 °F - 51.8 °F 50% 30.19 in 10.0 mi Calm Calm - N/A   Clear
10:15 PM 68.0 °F - 51.8 °F 56% 30.20 in 10.0 mi Calm Calm - N/A   Clear
10:35 PM 64.4 °F - 53.6 °F 68% 30.20 in 10.0 mi Calm Calm - N/A   Clear
10:55 PM 62.6 °F - 55.4 °F 77% 30.21 in 10.0 mi Calm Calm - N/A   Clear
11:15 PM 60.8 °F - 53.6 °F 77% 30.21 in 10.0 mi SE 3.5 mph - N/A   Clear
11:35 PM 62.6 °F - 53.6 °F 72% 30.21 in 10.0 mi Calm Calm - N/A   Clear
11:55 PM 60.8 °F - 53.6 °F 77% 30.21 in 10.0 mi Calm Calm - N/A   Clear